Tracking 17155 objects as of 29-July-2015
HD Live streaming from Space Station

BONUM 1

Track BONUM 1 now!
BONUM 1 is classified as:


NORAD ID: 25546
Int'l Code: 1998-068A
Perigee: 36,138.7 km
Apogee: 36,149.0 km
Inclination: 2.9 °
Period: 1,454.0 minutes
Semi major axis: 42514 km
RCS: 0.003 m2 (small)
Launch date: November 22, 1998
Source: Commonwealth of Independent States (former USSR) (CIS)

Television broadcasting; 8 Ku-band, Siberia or Europe, selected.
Your satellite tracking list
Your tracking list is empty





NASA's NSSDC Master Catalog

Two Line Element Set (TLE):
1 25546U 98068A   15209.09853736 -.00000021  00000-0  10000-3 0  9999
2 25546 002.8808 070.7813 0001209 342.4574 017.4934 00.99035629 61140

Source of the keplerian elements: AFSPC

N2YO: 353